Location: Newark
(45.5167°N, 11.1667°E)
Time: 01:00:43
(UTC+00:00)

Explorer 7 - Pass Details

Date: 18 December 2019
Orbit: 485 x 679 km, 50.3° (Epoch: 19 January)

Event Time Altitude Azimuth Distance (km) Brightness Sun altitude
Rises 10:29:20 0° 181° (S) 2,842 11.9 20.4°
Reaches altitude 10° 10:33:03 10° 149° (SSE) 1,994 11.2 20.5°
Maximum altitude 10:34:41 12° 128° (SE) 1,900 10.4 20.6°
Drops below altitude 10° 10:36:21 10° 107° (ESE) 2,038 10.1 20.6°
Sets 10:40:14 0° 76° (ENE) 2,992 10.5 20.7°
